Tracking 30995 objects as of 5-Jul-2025
HD Live streaming from Space Station
objects crossing your sky now

FENGYUN 1C DEB

Track FENGYUN 1C DEB now!
10-day predictions


NORAD ID: 31892
Int'l Code: 1999-025CKT
Perigee: 620.5 km
Apogee: 909.2 km
Inclination: 99.3 °
Period: 100.0 minutes
Semi major axis: 7135 km
RCS: 0.0129 m2 (small)
Launch date: May 10, 1999
Source: People's Republic of China (PRC)
Launch site: Taiyaun Space Center, China (TSC)

Note: This is SATELLITE DEBRIS
Your satellite tracking list
Your tracking list is empty




NASA's NSSDC Master Catalog

Two Line Element Set (TLE):
1 31892U 99025CKT 25185.70276198  .00000710  00000-0  19108-3 0  9999
2 31892  99.2771 341.6825 0202306  38.8265 322.7260 14.40231646941416
Source of the keplerian elements: AFSPC